Weather History for Rayong, Thailand

Change the Weather History Date:

Monday, June 24, 2013

  Actual Average Record
Temperature  
Mean Temperature 83 °F -  
Max Temperature 89 °F 89 °F 93 °F (1999)
Min Temperature 77 °F 80 °F -20 °F (2001)
Cooling Degree Days 18    
Growing Degree Days 33 (Base 50)    
Moisture  
Dew Point 76 °F    
Average Humidity 75    
Maximum Humidity 94    
Minimum Humidity 66    
Precipitation  
Precipitation 0.00 in - - ()
Sea Level Pressure  
Sea Level Pressure 29.76 in    
Wind  
Wind Speed 9 mph ()    
Max Wind Speed 16 mph    
Max Gust Speed -    
Visibility 3.8 miles    
Events Rain , Thunderstorm    
Averages and records for this station are not official NWS values.
T = Trace of Precipitation, MM = Missing Value Source: Averaged Metar Reports

Daily Weather History Graph

Daily Weather History Graph

Search for Another Location

Airport:

Trip Planner

Search our weather history database for the weather conditions in past years. The results will help you decide how hot, cold, wet, or windy it might be!

Date:

Astronomy

Jun. 24, 2013 Rise Set
Actual Time 5:52 AM ICT 6:44 PM ICT
Civil Twilight 5:28 AM ICT 7:07 PM ICT
Nautical Twilight 5:01 AM ICT 7:35 PM ICT
Astronomical Twilight 4:33 AM ICT 8:03 PM ICT
Moon 7:38 PM ICT (6/24) 6:29 AM ICT (6/24)
Length of Visible Light 13h 39m
Length of Day
12h 52m
Full, 99% of the Moon is Illuminated
Jun 24
Full
Jun 30
Last Quarter
Jul 8
New
Jul 16
First Quarter
Jul 23
Full

Hourly Weather History & Observations

Time (ICT) Temp. Heat Index Dew Point Humidity Pressure Visibility Wind Dir Wind Speed Gust Speed Precip Events Conditions
12:00 AM 82.4 °F 88.2 °F 73.4 °F 74% 29.74 in 4.3 mi WSW 9.2 mph - N/A   Mostly Cloudy
12:30 AM 82.4 °F 88.2 °F 73.4 °F 74% 29.74 in 4.3 mi WSW 9.2 mph - N/A   Mostly Cloudy
1:00 AM 82.4 °F 88.2 °F 73.4 °F 74% 29.74 in 4.3 mi WSW 9.2 mph - N/A   Mostly Cloudy
1:30 AM 82.4 °F 89.5 °F 75.2 °F 79% 29.74 in 4.3 mi SW 9.2 mph - N/A   Mostly Cloudy
2:00 AM 82.4 °F 88.2 °F 73.4 °F 74% 29.71 in 4.3 mi SW 9.2 mph - N/A   Mostly Cloudy
3:00 AM 82.4 °F 88.2 °F 73.4 °F 74% 29.71 in 4.3 mi SW 9.2 mph - N/A   Mostly Cloudy
3:30 AM 84.2 °F 92.3 °F 75.2 °F 74% 29.71 in 4.3 mi SW 11.5 mph - N/A   Mostly Cloudy
4:00 AM 84.2 °F 92.3 °F 75.2 °F 74% 29.71 in 4.3 mi SW 11.5 mph - N/A   Mostly Cloudy
5:00 AM 84.2 °F 92.3 °F 75.2 °F 74% 29.71 in 4.3 mi SW 9.2 mph - N/A   Mostly Cloudy
5:30 AM 84.2 °F 92.3 °F 75.2 °F 74% 29.71 in 4.3 mi SW 9.2 mph - N/A   Mostly Cloudy
6:00 AM 84.2 °F 92.3 °F 75.2 °F 74% 29.74 in 4.3 mi SW 11.5 mph - N/A   Mostly Cloudy
6:30 AM 84.2 °F 92.3 °F 75.2 °F 74% 29.74 in 3.7 mi SW 11.5 mph - N/A   Mostly Cloudy
7:00 AM 84.2 °F 92.3 °F 75.2 °F 74% 29.74 in 3.7 mi SW 9.2 mph - N/A   Mostly Cloudy
7:30 AM 86.0 °F 95.1 °F 75.2 °F 70% 29.74 in 3.7 mi SSW 9.2 mph - N/A   Mostly Cloudy
8:00 AM 86.0 °F 96.9 °F 77.0 °F 74% 29.74 in 3.7 mi SSW 11.5 mph - N/A   Mostly Cloudy
8:30 AM 86.0 °F 96.9 °F 77.0 °F 74% 29.74 in 3.7 mi SW 16.1 mph - N/A   Mostly Cloudy
9:00 AM 87.8 °F 99.7 °F 77.0 °F 70% 29.80 in 3.7 mi WSW 13.8 mph - N/A   Mostly Cloudy
9:30 AM 87.8 °F 99.7 °F 77.0 °F 70% 29.80 in 3.7 mi SW 11.5 mph - N/A   Mostly Cloudy
10:00 AM 87.8 °F 97.6 °F 75.2 °F 66% 29.80 in 3.7 mi SW 13.8 mph - N/A   Mostly Cloudy
10:30 AM 87.8 °F 99.7 °F 77.0 °F 70% 29.77 in 3.7 mi SSW 11.5 mph - N/A   Mostly Cloudy
11:00 AM 87.8 °F 97.6 °F 75.2 °F 66% 29.80 in 3.7 mi SSW 11.5 mph - N/A   Mostly Cloudy
11:30 AM 89.6 °F 102.2 °F 77.0 °F 66% 29.77 in 3.7 mi WSW 16.1 mph - N/A   Mostly Cloudy
12:00 PM 87.8 °F 97.6 °F 75.2 °F 66% 29.77 in 3.7 mi SW 16.1 mph - N/A   Mostly Cloudy
12:30 PM 89.6 °F 102.2 °F 77.0 °F 66% 29.77 in 3.7 mi SW 16.1 mph - N/A   Mostly Cloudy
1:00 PM 87.8 °F 97.6 °F 75.2 °F 66% 29.77 in 3.7 mi SW 13.8 mph - N/A   Mostly Cloudy
1:30 PM 87.8 °F 99.7 °F 77.0 °F 70% 29.74 in 3.7 mi SW 11.5 mph - N/A   Mostly Cloudy
2:00 PM 87.8 °F 99.7 °F 77.0 °F 70% 29.74 in 3.7 mi SW 11.5 mph - N/A   Mostly Cloudy
2:30 PM 87.8 °F 97.6 °F 75.2 °F 66% 29.74 in 3.7 mi SSW 13.8 mph - N/A   Mostly Cloudy
3:00 PM 87.8 °F 99.7 °F 77.0 °F 70% 29.74 in 3.7 mi SW 11.5 mph - N/A   Mostly Cloudy
3:30 PM 87.8 °F 99.7 °F 77.0 °F 70% 29.71 in 3.7 mi SW 11.5 mph - N/A   Mostly Cloudy
4:00 PM 87.8 °F 99.7 °F 77.0 °F 70% 29.71 in 3.7 mi WSW 11.5 mph - N/A   Mostly Cloudy
4:30 PM 87.8 °F 99.7 °F 77.0 °F 70% 29.71 in 3.7 mi SW 11.5 mph - N/A   Mostly Cloudy
5:00 PM 87.8 °F 99.7 °F 77.0 °F 70% 29.71 in 3.7 mi SW 13.8 mph - N/A   Mostly Cloudy
5:30 PM 87.8 °F 99.7 °F 77.0 °F 70% 29.74 in 3.7 mi SW 11.5 mph - N/A   Mostly Cloudy
6:00 PM 87.8 °F 99.7 °F 77.0 °F 70% 2.95 in 3.7 mi SW 11.5 mph - N/A   Mostly Cloudy
6:30 PM 86.0 °F 96.9 °F 77.0 °F 74% 29.74 in 3.7 mi SW 11.5 mph - N/A   Mostly Cloudy
7:00 PM 86.0 °F 96.9 °F 77.0 °F 74% 29.77 in 3.7 mi SW 11.5 mph - N/A   Mostly Cloudy
7:30 PM 80.6 °F 86.2 °F 75.2 °F 84% 29.77 in 3.1 mi West 4.6 mph - N/A Rain Light Rain
8:00 PM 78.8 °F - 75.2 °F 89% 29.77 in 3.1 mi NE 3.5 mph - N/A Rain Light Rain
8:30 PM 78.8 °F - 75.2 °F 89% 29.77 in 3.7 mi ENE 2.3 mph - N/A Rain Light Rain
9:00 PM 78.8 °F - 75.2 °F 89% 29.80 in 3.7 mi WSW 3.5 mph - N/A Thunderstorm Thunderstorm
9:30 PM 80.6 °F 87.1 °F 77.0 °F 89% 29.80 in 3.7 mi Calm Calm - N/A   Mostly Cloudy
10:00 PM 77.0 °F - 75.2 °F 94% 29.83 in 3.1 mi WSW 9.2 mph - N/A Rain , Thunderstorm Thunderstorms and Rain
10:30 PM 77.0 °F - 75.2 °F 94% 29.83 in 3.1 mi SSW 4.6 mph - N/A Rain , Thunderstorm Light Thunderstorms and Rain
11:00 PM 78.8 °F - 75.2 °F 89% 29.86 in 3.1 mi South 4.6 mph - N/A Rain , Thunderstorm Light Thunderstorms and Rain
11:30 PM 78.8 °F - 75.2 °F 89% 29.83 in 3.1 mi Calm Calm - N/A Rain , Thunderstorm Light Thunderstorms and Rain